STARLINK-34814, 65100

Orbit data source: Space-Track

STARLINK-34814, 65100 is a payload satellite owned by SpaceX/Seattle (US) in LEO that was launched on Mon, 04 Aug 2025 UTC via an FALCON 9 launch vehicle from the Air Force Eastern Test Range (AFETR). Payload-class satellites include a variety of spacecraft equipped with specific instruments for various scientific and technological missions. These include communications satellites like Starlink; space stations such as the ISS; scientific satellites like the Hubble; Earth observation satellites from companies like Planet Labs, Umbra, and HawkEye 360; GPS; miniature CubeSats for education and research; and military/defense satellites.

Loading next visibility...
Identifier
65100, 2025-167Y
Orbit
LEO
Country
Flag of USUS
Related business
Manufacturer
SpaceX/Seattle
Mission
Operational Commercial Communications
Bus & Motor
STARLINK V2MO, Unknown motor
Mass
575 kg wet, ~530 kg dry
Launch date (UTC)
2025-08-04 (11 months ago)
Launch vehicle
FALCON 9
Launch site
Air Force Eastern Test Range (AFETR)
Object type
Payload
Rocket body
Debris
Shape & HBR
Box + 2 Pan, 17.7 m
Radar Cross Section
36.964 m², Large (>1 m²)

Expand to show TLE details & history
Last TLE update: 16 hours ago

TLE from 16 hours ago
0 STARLINK-34814
1 65100U 25167Y   26174.51392076  .00022581  00000-0  67751-3 0  9993
2 65100  53.1576 253.5829 0001068  78.7998 281.3124 15.34396774 49708
Epoch: 2026-06-23T12:20Z
TLE epoch observation values (Epoch: 2026-06-23T12:20:02.753Z)
Latitude
-0.00008°
Longitude
156.88697°
Altitude
463.471 km
Speed
7.636 km/s
True Right ascension
16h 54m 19s
True Declination
0° 00' 00"
Sunlit
Object was in full shadow at epoch
Visualization orbit readout
Latitude
Unknown
Longitude
Unknown
Altitude
Unknown
Speed
Unknown
Apparent Right ascension
Unknown
Apparent Declination
Unknown
Sunlit
N/A
Visualization observer readout
Local Sidereal Time
15:18:54
Azimuth
Unknown
Elevation
Unknown
Doppler factor
Unknown
Orbital elements
Apogee altitude
463.701 km
Perigee altitude
462.239 km
Semi-major axis
6,841.107 km
Eccentricity
0.00011
Inclination
53.1576°
RAAN
253.5829°
Arg. of periapsis
78.7998°
True anomaly
281.3004°
Mean anomaly
281.3124°
Eccentric anomaly
281.3064°
Mean motion
3.83578 °/min
Orbital period
93.85 mins
BSTAR
0.00067751
Loading maneuver chart data...
Computing Atmospheric mass density...
Loading historical data...
Loading historical data...
Loading historical data...
Loading historical data...
Loading historical data...
Loading historical data...
Loading historical data...

Documentation

Showing up to 5 results
|